Tracking 30703 objects as of 12-Jun-2025
HD Live streaming from Space Station
objects crossing your sky now

THORAD AGENA D DEB

Track THORAD AGENA D DEB now!
10-day predictions


NORAD ID: 4895
Int'l Code: 1969-082HE
Perigee: 732.5 km
Apogee: 787.7 km
Inclination: 70.2 °
Period: 99.9 minutes
Semi major axis: 7131 km
RCS: 0.0073 m2 (small)
Launch date: September 30, 1969
Source: United States (US)
Launch site: AIR FORCE WESTERN TEST RANGE (AFWTR)

Note: This is SATELLITE DEBRIS
Your satellite tracking list
Your tracking list is empty




NASA's NSSDC Master Catalog

Two Line Element Set (TLE):
1 04895U 69082HE  25161.54125699  .00000737  00000-0  24161-3 0  9991
2 04895  70.1701 210.4650 0038717 103.6136 256.9311 14.41677624889619
Source of the keplerian elements: AFSPC